RH
35 38 41 41 43 47 47 46 39 33 31 30 32 34 38 38 37 36 36 37 41 46 48 50 54 56 58 58 61 64 63 62 63 61 63 68 65 64 68 66 64 64 57 53 54 53 53 53 55 55 56 56 56 57 57 57 59 57 56 55 53 52 51 50 50 49 48 47 47 47 46 47 47 46 45 43 44 46 46 44 42 40 40 39 39 38 38 38 38 38 38 37 37 37 38 39 40
38 42 45 45 45 48 46 43 39 35 32 30 32 35 36 34 35 35 34 34 36 41 42 43 46 48 50 53 56 57 57 53 54 56 58 63 64 62 62 62 63 63 59 57 55 54 54 52 53 54 54 55 54 55 56 57 57 57 56 55 54 53 50 49 49 47 46 45 46 46 46 45 46 46 45 44 45 46 45 45 44 42 42 40 39 40 40 40 39 39 39 39 38 38 38 39 42
39 44 46 48 46 47 46 42 40 37 33 34 34 33 32 31 32 33 33 34 34 37 40 42 41 44 47 50 51 50 51 44 42 49 53 59 62 62 61 61 61 60 61 63 58 54 52 52 52 54 54 54 54 55 55 56 56 56 55 54 54 52 49 48 49 47 46 46 46 46 46 46 47 47 47 46 46 46 47 47 46 45 45 43 43 43 43 42 41 40 40 40 39 38 38 41 45
35 44 47 51 49 45 46 40 38 36 34 38 37 35 33 31 31 31 34 35 34 34 36 36 35 37 39 43 45 45 45 41 40 45 48 55 58 58 58 58 58 57 59 61 59 53 49 50 51 52 53 53 53 54 54 54 53 54 53 52 52 51 50 50 51 49 48 48 49 49 49 48 48 49 49 48 48 48 48 49 48 48 47 46 45 46 45 45 43 41 41 42 40 39 40 43 48
35 44 47 50 47 43 42 37 36 34 34 37 39 39 34 32 33 34 36 36 33 31 33 33 34 36 38 40 40 40 39 38 41 44 47 52 55 57 57 55 54 56 57 57 58 54 47 47 49 49 52 53 54 54 53 52 51 52 51 51 50 50 50 51 51 50 49 50 50 50 50 50 50 50 50 50 50 50 49 49 49 49 48 47 46 47 47 46 44 43 43 44 44 43 43 46 50
37 43 44 47 45 43 42 37 35 35 35 35 39 39 35 35 35 34 35 37 36 33 31 30 32 35 38 37 36 40 40 38 40 43 44 48 53 55 53 51 51 51 55 55 54 53 47 45 47 48 51 53 54 54 53 53 52 52 50 50 50 50 50 50 50 50 49 49 49 50 50 50 51 52 52 52 52 52 51 50 51 50 48 47 48 48 48 47 45 45 47 47 48 47 47 48 51
41 44 42 46 46 45 43 38 36 36 36 35 35 34 33 34 33 33 33 33 34 33 32 30 30 28 33 34 34 39 41 39 39 41 41 45 50 49 47 47 46 47 54 54 48 46 45 44 45 47 50 52 53 53 54 53 52 51 51 51 51 50 50 49 49 49 49 50 50 50 51 52 52 53 53 53 54 54 53 52 52 51 50 49 48 48 48 49 48 48 48 48 48 48 48 49 51
45 48 41 43 44 41 40 36 36 36 36 34 33 33 35 37 38 38 34 33 34 36 37 36 33 29 34 36 33 35 39 40 37 39 39 41 44 43 44 43 44 45 51 52 44 43 43 43 45 46 48 50 51 51 52 52 51 52 52 52 52 51 50 49 49 49 49 50 51 52 53 54 54 53 53 53 54 54 54 54 54 53 52 51 50 50 49 50 50 50 49 48 48 48 47 47 50
45 46 44 44 41 41 39 34 34 34 35 34 33 35 37 39 39 37 34 37 38 36 38 39 35 31 33 32 32 34 37 37 34 37 38 40 41 41 42 41 42 43 51 53 41 40 42 43 45 45 47 48 50 51 51 51 51 52 52 52 52 51 51 50 50 50 50 51 52 53 54 54 54 53 53 53 54 54 55 55 56 56 56 55 54 53 51 51 51 51 50 49 49 49 48 47 50
44 45 46 44 39 41 39 35 34 34 35 35 36 37 37 36 34 34 34 37 36 35 37 37 33 30 31 30 34 35 33 33 33 36 38 41 41 42 43 43 43 42 50 51 41 40 40 42 44 44 46 47 49 50 51 52 52 52 52 53 52 52 51 52 52 53 53 53 54 55 54 54 53 53 54 54 54 54 55 55 56 56 56 56 55 55 53 51 50 50 50 49 48 48 48 48 48
43 42 43 42 40 43 41 36 36 34 35 37 37 38 38 37 35 33 32 33 32 33 35 36 35 34 33 33 35 33 32 33 33 35 38 41 42 44 46 46 46 43 48 47 43 44 39 41 43 43 45 46 47 49 51 51 51 50 51 52 51 51 51 52 53 54 55 55 56 57 55 54 54 53 53 53 54 54 54 55 55 55 55 55 55 55 54 53 51 50 49 49 47 46 47 46 45
44 44 41 42 43 45 45 39 35 34 36 38 38 37 37 38 37 34 31 31 33 35 37 36 37 36 32 30 33 32 33 34 33 35 37 40 42 44 46 48 46 45 51 50 46 47 44 43 43 44 45 47 48 49 50 49 49 49 49 50 50 50 50 51 52 53 54 54 56 57 56 55 55 53 52 52 52 52 53 53 53 55 55 56 56 55 55 54 54 53 52 50 48 47 46 46 45
46 47 40 39 43 42 44 40 37 37 37 37 38 40 40 39 39 39 37 37 39 39 37 35 35 36 34 31 32 34 36 37 35 36 37 40 42 43 46 47 46 46 51 53 49 48 48 48 48 48 45 46 47 47 48 48 47 47 47 48 49 49 49 49 50 51 53 53 54 54 54 53 53 52 51 51 50 50 50 50 51 53 54 55 55 56 57 57 56 55 54 53 50 48 46 45 44
42 44 37 37 42 41 42 44 43 40 37 35 38 43 41 40 39 37 39 40 40 37 35 37 38 36 33 32 34 36 38 39 37 37 39 41 42 44 46 47 45 46 50 51 47 45 48 50 50 48 46 45 45 45 46 46 47 47 47 48 49 49 49 48 48 49 50 51 51 52 52 51 51 51 51 50 50 50 50 50 51 53 53 54 55 57 58 58 59 58 56 55 53 50 48 46 45
36 41 38 36 39 40 43 43 42 40 36 36 38 39 39 42 42 39 38 38 35 36 40 41 41 38 31 33 36 36 38 40 39 39 40 41 43 46 47 48 47 48 50 49 46 47 50 50 48 47 49 49 48 48 48 47 48 49 50 51 52 51 51 50 50 50 51 51 52 53 53 53 53 52 52 51 51 51 51 52 52 53 53 54 55 55 55 56 56 56 56 56 55 54 51 48 47
33 39 39 35 37 39 40 40 41 41 38 37 38 40 41 41 41 41 37 35 35 40 45 41 41 43 37 34 34 32 36 39 39 39 40 43 46 47 49 51 51 51 52 52 51 52 51 48 48 48 49 51 51 52 52 50 47 47 51 52 52 51 51 51 51 51 52 53 53 54 55 55 55 55 55 54 54 54 54 54 54 54 55 56 56 56 56 55 54 54 54 55 56 56 55 53 50
33 40 38 32 34 34 36 40 43 43 37 37 40 43 42 37 36 38 36 36 37 41 46 40 38 42 39 35 32 32 34 36 38 38 41 45 46 46 49 51 52 53 52 54 54 53 52 49 51 51 51 51 52 53 53 54 47 46 49 49 50 50 50 50 50 50 51 53 53 54 54 53 56 58 57 56 56 56 56 57 57 57 57 58 58 58 57 57 55 53 53 53 55 56 56 56 56
37 41 34 29 30 30 36 38 37 39 38 39 41 41 40 39 36 37 40 39 38 39 43 42 41 41 37 32 29 33 34 35 38 40 42 45 44 43 46 50 52 53 53 54 54 52 52 51 52 53 52 51 52 53 54 55 50 49 51 50 51 51 50 50 50 51 51 53 53 53 55 54 58 60 57 58 57 56 56 57 58 58 58 58 59 58 57 57 56 54 53 53 54 55 56 57 59
39 36 29 28 29 28 33 35 35 37 37 40 40 38 39 40 38 42 47 42 38 39 39 38 39 37 31 29 30 33 33 34 36 39 41 42 43 43 45 46 49 52 53 54 54 53 52 52 52 52 51 49 49 52 52 54 50 50 53 52 52 51 52 52 51 52 51 52 54 54 56 56 58 61 58 56 55 53 54 54 54 56 56 57 58 58 57 56 55 55 53 53 55 54 57 59 59
33 30 27 28 26 26 29 33 37 36 36 38 38 37 36 35 38 45 50 48 45 41 36 33 31 32 30 30 32 32 33 33 34 37 38 40 41 42 44 45 48 48 50 53 54 53 52 52 51 51 52 48 48 50 50 53 49 49 54 53 52 52 52 52 50 52 51 53 56 54 55 56 58 64 61 55 53 52 53 54 55 56 55 56 58 58 58 57 57 55 53 54 56 57 60 61 61
30 28 29 29 29 28 27 31 35 35 36 37 36 38 35 34 39 43 47 51 51 44 38 33 30 32 30 30 32 33 34 34 35 38 40 40 40 41 44 47 50 48 46 49 50 51 50 50 49 49 52 50 50 51 52 55 52 50 55 55 56 56 56 55 54 55 55 54 55 54 53 54 56 63 63 57 55 55 56 58 58 59 57 55 55 55 56 58 58 58 58 58 62 67 67 68 66
31 30 29 33 34 30 28 32 34 33 35 36 37 38 36 37 43 46 51 54 52 46 39 32 31 33 30 30 33 33 34 36 38 39 39 39 39 42 44 45 49 50 49 48 49 50 50 50 50 50 51 52 53 55 57 60 57 56 59 56 55 56 56 58 59 61 63 60 57 56 55 55 56 59 60 56 55 55 58 58 58 60 58 55 53 52 53 56 57 59 60 60 66 73 74 74 72
30 28 27 31 31 29 32 33 32 33 35 37 37 37 37 40 42 45 49 49 45 40 33 29 30 34 32 30 32 33 34 36 37 38 37 37 38 41 41 44 48 49 53 54 53 53 51 51 52 52 52 52 52 55 59 60 58 59 60 55 53 54 54 55 57 60 67 66 60 59 57 59 60 58 58 55 53 52 53 54 55 56 53 52 53 52 54 56 56 58 59 61 64 71 74 73 71
30 27 26 27 26 29 34 32 33 34 34 36 38 40 39 39 39 39 41 37 33 30 27 28 30 32 32 29 32 34 34 33 34 35 35 35 35 37 38 42 46 48 52 55 56 56 55 54 53 54 54 52 52 54 57 59 59 59 58 55 54 54 53 54 56 59 64 64 59 55 52 55 57 56 57 57 55 54 52 51 51 50 47 49 51 51 51 52 55 57 60 62 63 70 74 69 67
30 26 25 26 26 31 34 33 33 31 31 34 38 41 38 37 37 36 37 32 27 26 27 29 30 30 29 28 31 32 33 32 32 33 34 35 34 35 37 39 43 47 50 53 55 56 57 56 54 54 55 53 54 54 56 59 61 60 57 56 55 53 53 54 56 59 60 59 56 52 48 50 53 54 55 56 57 56 53 50 48 47 46 47 47 47 48 48 49 52 56 60 61 70 77 69 65
27 24 26 27 29 31 33 31 29 30 32 34 36 36 34 36 36 36 35 30 25 25 27 30 31 30 27 27 30 31 32 31 31 32 34 35 35 36 38 38 39 42 47 51 52 53 57 58 55 54 55 55 55 56 57 58 59 58 57 56 55 54 55 55 55 56 56 55 55 51 46 48 50 52 55 56 58 57 54 52 50 48 48 47 45 44 48 48 47 47 49 54 57 64 73 67 62
24 24 27 28 30 31 32 29 29 33 33 33 33 31 32 35 34 36 36 31 29 28 27 29 31 31 30 29 30 33 32 30 30 31 33 34 34 37 40 39 39 40 44 49 49 50 55 58 59 57 57 55 53 55 56 56 55 54 53 52 52 53 54 55 55 57 56 55 54 50 47 47 49 51 54 57 58 58 56 55 53 52 54 55 52 49 52 51 50 47 45 51 55 57 61 61 61
25 28 28 28 31 32 31 30 31 34 34 33 32 31 36 36 33 36 36 33 34 34 31 31 33 34 35 33 32 35 33 28 29 30 32 33 33 36 39 40 40 40 42 45 47 49 52 56 58 58 57 55 52 52 52 52 51 50 48 47 49 50 50 51 54 56 56 55 52 48 48 48 49 49 50 53 55 57 56 55 54 55 60 63 60 57 57 56 53 49 47 52 55 54 55 55 62
29 31 31 32 33 33 34 33 33 35 35 34 35 38 40 36 34 34 34 37 37 37 38 37 36 34 34 34 34 36 35 31 31 31 32 33 34 36 38 38 39 41 42 44 46 46 48 52 53 53 52 52 50 49 49 49 49 48 47 47 49 49 47 49 51 51 50 48 44 43 44 45 46 47 49 50 51 52 51 50 49 49 54 61 62 59 59 58 56 53 52 53 54 54 54 53 61
31 33 34 34 31 32 36 35 33 35 36 36 40 42 40 37 37 35 36 39 38 40 42 40 40 36 33 34 35 36 35 34 34 33 35 37 38 39 39 40 39 41 43 45 45 44 45 48 48 48 47 47 46 45 47 48 48 49 50 51 52 50 50 50 49 48 46 43 40 39 40 40 42 43 45 46 46 46 45 45 45 44 47 54 61 61 59 59 59 59 58 57 56 56 55 54 57
31 33 34 37 34 32 34 34 33 35 34 35 43 42 38 39 40 41 39 39 41 42 43 42 44 41 35 34 35 36 36 36 37 38 39 41 42 43 44 44 44 45 46 48 47 45 45 47 47 47 47 45 44 43 45 46 48 49 50 53 54 51 49 50 49 50 48 45 44 42 41 40 41 41 42 43 43 43 44 43 43 42 42 46 55 60 61 62 62 61 62 61 59 58 57 57 57
32 34 35 40 42 37 34 32 33 37 34 34 45 46 41 39 40 43 42 43 44 43 45 46 47 46 40 37 37 37 38 38 39 41 42 43 45 45 45 46 46 47 49 49 48 45 45 45 45 45 46 44 44 44 45 46 47 47 48 51 51 49 47 48 48 49 49 49 48 48 44 40 39 40 40 40 41 41 42 42 43 43 41 40 46 54 59 62 63 63 66 65 61 59 58 57 57
33 35 39 39 42 43 36 32 32 36 36 34 41 47 44 40 39 41 43 47 45 42 45 46 47 48 43 41 41 39 39 41 41 43 42 44 46 45 45 46 45 46 48 48 46 43 43 42 42 43 42 41 41 43 44 44 45 44 43 46 47 47 47 47 48 47 48 46 44 44 44 40 39 39 37 36 37 38 39 40 42 43 41 40 42 46 50 54 55 57 61 63 61 62 61 57 55
34 34 40 37 39 44 40 36 34 33 35 37 39 44 46 40 37 38 39 41 39 37 40 41 44 46 44 43 44 41 39 40 42 44 42 43 45 44 44 44 44 45 46 47 44 41 43 43 41 40 39 38 38 39 39 41 42 41 42 44 45 46 46 45 45 45 46 44 41 41 40 38 37 37 36 35 35 35 36 35 36 38 38 38 40 42 45 48 47 47 48 50 53 55 54 51 47
34 32 36 37 38 42 43 41 37 32 34 38 40 43 44 38 36 37 37 36 35 34 34 37 39 38 38 41 43 42 39 40 42 43 43 44 44 43 43 42 42 42 43 44 41 39 41 41 39 36 35 39 37 34 35 39 42 43 45 45 45 45 45 43 42 42 45 46 45 41 37 34 34 34 33 32 31 30 30 30 31 32 32 32 33 35 39 43 45 47 46 43 39 38 38 38 36
31 31 32 36 37 39 43 43 37 34 34 36 38 41 42 41 39 37 36 36 36 35 32 35 37 34 35 39 41 39 39 41 41 41 43 44 43 42 42 41 41 42 41 39 36 35 36 37 35 31 31 35 34 32 35 39 42 45 46 45 44 43 43 45 44 43 44 44 44 41 35 33 32 31 29 28 28 27 26 27 28 28 29 29 28 29 31 33 36 37 37 32 26 25 28 29 30
25 29 29 32 36 36 39 41 37 34 34 37 39 41 44 43 41 38 36 35 35 36 34 35 38 35 35 37 38 37 38 41 39 38 41 41 41 40 40 41 41 42 40 37 35 34 35 35 35 33 33 34 36 38 40 41 42 43 44 44 45 45 42 44 44 41 39 39 40 37 31 28 25 22 22 22 23 23 23 24 24 24 24 23 25 25 25 24 24 24 23 20 19 19 21 24 27
21 26 26 27 31 34 36 37 35 33 33 38 40 41 44 42 40 40 36 34 37 39 36 35 37 37 37 37 37 36 37 39 37 36 37 36 36 37 38 38 38 40 38 37 37 36 36 37 38 39 37 36 37 39 38 39 39 41 44 45 47 46 41 37 35 31 29 29 31 27 21 20 20 19 20 21 22 22 22 22 22 22 22 23 24 23 23 23 22 22 20 17 17 18 19 23 27
21 24 24 25 27 30 36 35 32 31 32 39 41 37 41 42 41 42 37 33 38 39 37 36 35 36 37 37 35 33 34 37 37 37 36 35 34 33 35 34 35 37 35 35 36 34 33 35 37 38 37 37 38 36 35 37 37 38 39 38 37 35 29 26 24 21 21 22 24 21 18 18 18 18 19 20 21 22 22 23 24 25 26 27 28 27 27 26 26 27 28 25 20 21 21 24 28
19 23 23 22 21 25 34 35 31 30 28 36 42 39 43 45 42 45 42 37 37 35 36 37 35 34 34 37 36 31 32 35 36 36 36 37 36 32 31 31 31 34 33 33 34 33 32 32 32 33 35 37 38 34 33 34 32 30 27 23 23 23 20 20 20 20 20 21 22 22 22 21 19 18 19 19 18 21 22 22 23 25 27 28 27 27 28 30 33 35 37 34 28 27 27 27 30
17 21 21 20 18 20 28 32 31 31 26 30 38 42 48 50 47 48 45 42 41 37 36 37 36 33 30 35 36 31 31 34 34 36 36 37 37 34 31 30 31 32 33 34 34 34 34 31 28 30 31 32 32 30 29 29 26 25 23 21 22 22 20 21 21 20 20 20 20 21 23 24 24 23 22 20 19 20 20 19 19 20 21 24 24 26 30 34 38 38 37 38 36 35 34 33 33
18 18 19 18 17 19 22 27 31 33 30 27 30 38 49 54 55 52 44 41 43 42 40 39 39 34 29 32 35 32 32 32 32 35 37 38 39 36 32 31 34 35 33 33 35 35 35 32 28 30 30 28 28 27 25 25 24 23 23 22 21 22 21 22 21 20 19 20 20 20 21 24 25 25 24 22 21 21 19 18 19 19 21 23 24 28 33 35 38 39 39 44 46 44 43 40 36
20 18 20 19 17 18 18 23 30 32 31 31 30 34 44 53 56 53 45 41 41 42 42 42 40 35 30 30 32 31 33 33 30 32 36 37 39 38 35 34 35 37 35 34 36 37 35 31 29 29 30 27 25 23 21 21 22 20 19 18 18 20 20 21 21 21 22 22 22 22 22 24 24 23 23 22 21 20 20 21 22 23 25 27 29 31 33 34 38 43 43 45 49 49 53 52 44
22 18 19 20 19 19 19 24 30 29 28 31 32 32 37 42 45 51 50 47 44 41 39 41 37 32 29 29 30 29 32 33 30 30 33 35 38 39 36 35 36 38 38 36 37 36 31 26 25 25 25 23 21 20 20 20 21 20 18 17 16 18 20 21 21 22 24 24 23 23 23 23 21 19 20 20 19 20 21 22 22 24 26 29 31 30 30 33 38 43 43 42 44 45 49 51 49
24 22 21 20 20 19 21 25 29 28 29 31 34 37 40 37 36 42 45 46 48 42 38 41 39 35 31 28 30 30 31 33 32 31 33 35 37 38 38 36 36 38 38 37 37 33 27 23 23 23 22 22 20 20 21 22 21 19 17 17 18 21 21 21 20 21 23 24 24 25 24 23 20 19 20 20 18 19 20 20 21 23 24 29 32 30 30 33 34 38 41 42 43 42 44 45 45
24 25 23 22 19 18 23 28 29 30 33 34 35 40 44 42 36 36 37 41 48 46 43 43 40 39 36 31 31 30 30 34 36 34 35 37 38 39 40 38 37 38 38 39 36 30 25 24 24 25 24 23 22 23 23 22 21 19 20 21 22 24 24 23 22 22 23 24 24 24 25 23 21 20 22 22 20 19 19 18 18 21 22 26 31 33 34 34 34 35 38 41 43 42 41 41 39
22 24 24 24 23 23 28 31 30 34 36 33 31 34 38 40 37 35 36 39 42 44 45 44 40 38 37 35 33 33 32 34 36 37 37 40 41 41 40 39 39 39 39 38 34 28 25 26 26 26 26 24 24 24 23 22 20 20 23 24 24 24 23 23 23 23 24 25 24 24 25 24 23 23 24 24 24 22 20 18 18 20 21 22 26 32 36 37 37 38 40 40 38 38 38 38 37
21 24 25 27 28 30 31 32 33 35 33 30 28 29 32 35 34 31 33 36 35 35 37 39 41 40 39 38 36 35 35 34 35 37 39 39 41 41 40 40 41 40 39 36 33 29 27 28 28 29 28 25 24 24 23 21 21 22 23 23 25 24 23 24 24 24 25 25 25 26 25 26 26 26 27 26 27 26 21 19 19 20 20 22 23 26 30 32 34 35 37 37 34 35 37 36 36
20 25 27 27 30 33 32 31 34 32 28 28 28 28 28 30 30 27 30 35 35 33 31 31 39 44 41 40 39 38 37 37 35 36 38 39 40 41 41 42 42 41 39 34 33 32 29 28 29 31 30 26 24 24 24 22 23 24 23 22 23 23 23 25 25 25 26 25 26 25 25 26 26 27 28 28 27 27 23 22 23 22 22 23 24 24 26 28 31 33 35 36 35 35 36 36 36
20 24 27 27 28 32 32 29 31 30 27 26 26 28 28 27 26 23 25 29 30 32 31 27 33 43 45 43 41 39 39 39 37 36 37 40 42 42 42 44 44 41 37 33 34 34 30 28 29 30 30 27 25 25 24 25 26 26 23 22 23 24 25 27 27 27 26 26 26 25 26 24 23 26 27 26 24 23 23 25 27 27 27 27 28 28 30 30 32 34 36 38 39 39 41 41 39
21 23 26 26 25 27 28 26 26 26 25 24 26 30 29 27 27 25 24 24 25 28 29 27 29 36 45 47 43 39 40 41 38 37 38 41 46 45 44 47 46 40 37 35 35 33 29 28 29 30 31 29 27 25 24 27 29 27 24 23 24 25 24 25 27 26 25 26 26 25 24 22 22 25 24 23 23 23 25 27 30 32 32 33 35 35 35 35 35 35 36 38 40 43 46 45 43
21 21 22 25 24 24 25 25 24 25 26 28 31 31 29 28 28 27 26 25 24 22 22 26 27 26 34 44 43 40 42 43 39 37 38 41 48 49 47 49 47 41 38 37 34 31 28 28 29 30 31 30 30 27 25 28 30 29 27 25 26 26 24 25 27 26 25 27 26 24 23 23 23 24 23 24 25 26 28 31 34 35 36 37 39 38 37 36 36 35 34 36 40 43 45 45 44
20 21 21 21 22 23 23 24 24 26 26 27 27 27 28 28 26 27 27 26 24 21 19 23 26 26 30 37 41 42 42 42 38 36 36 40 47 50 48 49 48 42 39 39 34 29 28 29 29 31 33 33 31 29 26 26 28 30 30 29 27 26 26 26 27 27 27 28 28 27 27 26 26 27 28 28 29 29 31 35 37 37 38 39 39 38 36 35 36 37 36 37 40 42 42 45 47
20 20 22 21 22 24 25 25 26 29 28 25 24 25 28 29 27 28 29 27 25 24 21 21 24 29 32 33 37 40 40 42 40 37 37 40 47 47 46 48 48 43 41 39 33 28 29 30 30 31 33 34 32 31 31 29 28 31 33 32 28 25 25 26 27 27 28 28 29 30 31 30 29 31 31 30 31 33 34 35 36 38 39 39 38 38 37 37 37 38 39 41 44 45 45 46 49
22 21 22 22 24 26 27 26 27 31 31 28 25 25 26 27 28 31 32 31 31 30 25 20 21 27 30 31 35 38 39 40 38 36 36 40 46 45 44 46 47 43 42 39 32 29 31 33 32 34 36 36 34 35 36 32 30 32 34 32 28 24 23 24 26 27 28 30 31 31 32 32 32 33 32 32 34 37 36 35 37 38 40 41 40 40 40 39 38 39 42 45 47 48 48 47 47
20 21 23 23 23 24 26 27 27 29 29 27 25 24 25 25 25 30 34 33 31 29 26 21 20 23 27 31 33 35 35 35 33 32 34 39 44 44 43 45 44 43 43 40 34 32 35 37 36 37 39 38 37 37 37 35 33 35 33 29 25 22 20 22 24 27 29 31 31 32 32 32 33 33 32 33 35 37 37 36 38 38 38 38 38 39 39 38 40 42 45 46 46 46 45 45 47
19 19 23 24 23 23 26 29 30 28 26 26 25 25 27 27 25 28 33 33 28 26 25 23 21 21 23 30 33 29 27 30 30 31 35 41 44 44 44 43 41 42 42 40 37 35 38 40 39 39 41 41 40 40 40 39 38 37 33 29 27 26 24 25 27 30 30 31 32 32 32 33 34 33 32 32 33 34 35 35 36 36 35 36 36 37 37 39 42 45 45 46 46 45 42 43 46
22 21 22 24 23 23 27 29 29 26 25 25 26 25 27 28 27 28 30 32 30 26 24 24 26 23 21 28 32 26 23 28 31 32 38 46 47 44 43 41 38 39 40 40 39 37 38 41 42 42 44 44 44 45 45 43 40 36 33 30 28 28 27 27 29 31 31 31 31 29 29 30 32 34 35 35 33 33 34 34 35 35 35 36 36 36 37 40 43 44 44 45 45 46 45 45 47